Regional Weather Roundup
Issued by NWS

Home | Current Version | Previous Version | Text Only | Print | Product List | Glossary Off
Versions: 1 2 3 4 5 6 7 8 9 10 11 12 13 14 15 16 17 18 19 20 21 22 23 24 25 26 27 28 29 30 31 32 33 34 35 36 37 38 39 40 41 42 43 44 45 46 47 48 49 50

000
ASUS43 KIND 281009
RWRIN

WEATHER ROUNDUP FOR INDIANA
NATIONAL WEATHER SERVICE INDIANAPOLIS IN
600 AM EDT SUN MAY 28 2017

NOTE: "FAIR" INDICATES FEW OR NO CLOUDS BELOW 12,000 FEET WITH NO
SIGNIFICANT WEATHER AND/OR OBSTRUCTIONS TO VISIBILITY.

* - STATION DOES NOT REPORT WEATHER SUCH AS PRECIPITATION OR FOG.

+ - STATION NOT QUALITY CONTROLLED BY THE NATIONAL WEATHER SERVICE.
    USE DATA WITH CAUTION...ESPECIALLY DEWPOINT AND RELATIVE
    HUMIDITY OBSERVATIONS.

INZ001>003-010>013-019-020-281100-
NORTHWEST INDIANA

CITY           SKY/WX    TMP DP  RH WIND       PRES   REMARKS
GARY /AIRPORT/ MOCLDY    55  54  94 CALM      29.75F
KNOX *+        CLOUDY    57  57 100 CALM      29.74S
LA PORTE +     CLOUDY    59  58  97 CALM      29.76S FOG
MICHIGAN CITY+ FOG       52  52 100 CALM      29.75F VSB 1/2
MONTICELLO +   PTCLDY    61  59  94 CALM      29.73S
RENSSELAER +   CLOUDY    59  57  94 NE5       29.74S FOG
VALPARAISO     CLOUDY    59  58  96 NE6       29.75F FOG

$$

LMZ046-743>745-281100-
SOUTHERN LAKE MICHIGAN

STATION/POSITION TIME  TEMP    WIND        PRES    WAVE
                       AIR SEA DIR/SP/G            HT
                 (UTC) (F)     (DEG/KT/KT) (MB)    (FT)
BURNS HARBOR     0940   63      CALM  /  3 1007.8F
MICHIGAN CITY    0940   62     110/  5/  7   N/A
5NW MICH CITY    1000   57 55   90/  4/  4   N/A     0

$$

INZ004-005-014>016-021>024-281100-
NORTH CENTRAL INDIANA

CITY           SKY/WX    TMP DP  RH WIND       PRES   REMARKS
GOSHEN         CLEAR     58  53  84 E6        29.75F
LOGANSPORT +   CLEAR     59  59 100 E7        29.74F
PERU/GRISSOM   CLEAR     60  60 100 E6        29.74F
ROCHESTER +    CLEAR     61  59  94 CALM      29.75F
SOUTH BEND     CLOUDY    58  57  97 CALM      29.75F
WARSAW +       CLEAR     55  54  94 E3        29.76F

$$

INZ006>009-017-018-025>027-281100-
NORTHEAST INDIANA

CITY           SKY/WX    TMP DP  RH WIND       PRES   REMARKS
ANGOLA *+      CLEAR     57  46  67 E3        29.77F
AUBURN +       PTCLDY    55  52  88 NE3       29.78F
FORT WAYNE     MOCLDY    59  54  83 NE6       29.75F
HUNTINGTON +   PTCLDY    58  57  96 CALM      29.75F
KENDALLVILLE + CLOUDY    57  53  86 E6        29.78F

$$

INZ028-029-035-036-043>045-051>053-281100-
WEST CENTRAL INDIANA

CITY           SKY/WX    TMP DP  RH WIND       PRES   REMARKS
CRAWFORDSVL +  PTCLDY   -23 -23 100 E3        29.72F
GREENCASTLE +  FOG       61  61 100 CALM      29.73F VSB 1
LAFAYETTE      CLOUDY    60  60 100 E5        29.72S FOG
TERRE HAUTE    CLOUDY    64  61  90 S6        29.72F

$$

INZ030>032-037>040-046>048-054>057-064-065-281100-
CENTRAL INDIANA

CITY           SKY/WX    TMP DP  RH WIND       PRES   REMARKS
CP ATTERBURY + MOCLDY    61  59  94 CALM      29.75S FOG
FISHERS *+     CLEAR     59  59 100 CALM      29.74
FRANKFORT +    CLOUDY    65  63  96 SE7       29.74F FOG
GREENWOOD *+   PTCLDY    64  62  94 S5        29.75R
INDIANAPOLIS   MOCLDY    63  62  97 S5        29.74R
-EAGLE CREEK   MOCLDY    63  61  93 CALM      29.74R
KOKOMO +       PTCLDY    60  59  96 E3        29.76S
MARION +       PTCLDY    59  57  94 E3        29.76R
MT COMFORT *+    N/A    N/A N/A N/A MISG        N/A
SHELBYVILLE    CLEAR     65  61  87 S7        29.74S
ZIONSVILLE +   PTCLDY    61  60  97 SE3       29.75S FOG

$$

INZ033-034-041-042-049-050-058-059-281100-
EAST CENTRAL INDIANA

CITY           SKY/WX    TMP DP  RH WIND       PRES   REMARKS
MUNCIE         CLEAR     63  60  90 E3        29.75F
RICHMOND +     CLOUDY    61  61 100 S8        29.78S FOG

$$

INZ060-061-067>069-081>083-085>088-281100-
SOUTHWEST INDIANA

CITY           SKY/WX    TMP DP  RH WIND       PRES   REMARKS
EVANSVILLE     CLOUDY    66  60  81 SW7       29.77R
HUNTINGBURG *+ CLOUDY    64  61  90 S14       29.75S
WASHINGTON +   CLOUDY    64  59  81 S6        29.74R

$$

INZ062-063-066-070>080-084-089>092-281100-
SOUTH CENTRAL AND SOUTHEAST INDIANA

CITY           SKY/WX    TMP DP  RH WIND       PRES   REMARKS
BEDFORD +      CLOUDY    63  59  88 S5        29.74S
BLOOMINGTON    PTCLDY    63  59  87 SW3       29.74S
MADISON *+     CLOUDY    63  61  94 SE5       29.79F
NORTH VERNON + CLOUDY    61  61 100 S5        29.76F
SEYMOUR +      CLOUDY    64  63  94 S5        29.76S

$$





USA.gov is the U.S. government's official web portal to all federal, state and local government web resources and services.